アトラス彗星

C/2022 QE78 ( ATLAS )

English version
Home page
Updated on November 25, 2025

---------------------------------------------------------------------

・ プロフィール

発見日 2022年8月27日
発見光度 19.4等
発見者 Asteroid Terrestrial-Impact Last Alert System (ATLAS) search program

・ 写真集

・ 軌道要素

Epoch 2025 May 5.0 TT = JDT 2460800.5
T 2025 Sept. 11.40460 TT                                Pike
q   5.4761127            (2000.0)            P               Q
z  -0.0006447      Peri.    0.55977     -0.50515202     -0.69107359
 +/-0.0000004      Node   119.89264     +0.78947963     -0.61199937
e   1.0035307      Incl.   36.60394     +0.34863067     +0.38454397
From 2204 observations 2022 Aug. 27-2025 Feb. 26, mean residual 0".5.

・ 星図

・ 光度変化

        m1 = 3.5 + 5 logΔ + 10.0 log r

---------------------------------------------------------------------

軌道要素はM.P.E.C. 2025-D254に掲載されたものです。
星図はステラナビゲータ Ver.10 (アストロアーツ) で作成したものです。
光度グラフはComet for Windowsで作成したものです。

---------------------------------------------------------------------

Copyright(C) Seiichi Yoshida (comet@aerith.net). All rights reserved.